OpenBCM V1.08-5-g2f4a (Linux)

Packet Radio Mailbox

IZ3LSV

[San Dona' di P. JN]

 Login: GUEST





  
I0OJJ  > KEPS     28.06.25 01:31l 343 Lines 16342 Bytes #50 (0) @ AMSAT
BID : ORB25179.1
Read: GUEST
Subj: 2Line Orbital Elements 25179.AMSAT
Path: IZ3LSV<IK6IHL<IK7NXU<HB9ON<DK0WUE<PD0LPM<IR0AAB<I0OJJ
Sent: 250628/0025z @:I0OJJ.ITA.EU [Rome] obcm1.08-10-g596e
From: I0OJJ @ I0OJJ.ITA.EU (Gustavo)
To:   KEPS @ AMSAT
X-Info: This message was generated automatically


QST de W1STR

AMSAT Orbital Elements for Amateur Satellites in TLE Format
From Orbital Analysis Office
New England Sci-Tech STEM Education Center
Natick, MA June 28, 2025
To all radio amateurs


These element sets describe the orbits of various satellites 
in use by the amateur radio community. For details see:
www.amsat.org/keplerian-elements-formats/

A daily update of element sets is available at:
www.amsat.org/tle/daily-bulletin.txt
or without bulletin text:
www.amsat.org/tle/dailytle.txt


AO-07
1 07530U 74089B   25178.46472086 -.00000043  00000-0  21188-4 0  9995
2 07530 101.9928 182.9192 0012657  88.1705  80.9307 12.53689835316062
UO-11
1 14781U 84021B   25178.40429378  .00000843  00000-0  94428-4 0  9992
2 14781  97.7551 144.4214 0006293 280.2798  79.7710 14.89430062204298
AO-27
1 22825U 93061C   25178.60953863  .00000069  00000-0  43595-4 0  9996
2 22825  98.7359 240.2545 0009386  64.2858 295.9292 14.30804580656292
FO-29
1 24278U 96046B   25178.42226699  .00000001  00000-0  39796-4 0  9990
2 24278  98.5737  69.9654 0348934 296.4730  60.1012 13.53249899425188
NOAA-15
1 25338U 98030A   25178.83173157  .00000161  00000-0  84026-4 0  9991
2 25338  98.5340 203.5229 0009216 310.5568  49.4810 14.26988686411001
GO-32
1 25397U 98043D   25178.39449177  .00000027  00000-0  31776-4 0  9994
2 25397  98.9710 157.8861 0001951 126.9179 233.2178 14.24318796400824
ISS
1 25544U 98067A   25178.70653524  .00007302  00000-0  13451-3 0  9994
2 25544  51.6350 254.9416 0002220 300.1430  59.9339 15.50274787516792
NO-44
1 26931U 01043C   25178.87821038  .00000084  00000-0  62522-4 0  9992
2 26931  67.0512  80.5298 0006145 276.6731  83.3672 14.31742150239881
SO-50
1 27607U 02058C   25178.64162965  .00000956  00000-0  13640-3 0  9996
2 27607  64.5517 144.7809 0058427 330.0778  29.6991 14.81666984212115
CO-55
1 27844U 03031E   25178.24589226  .00000216  00000-0  11311-3 0  9992
2 27844  98.6754 186.2910 0010556 131.3148 228.8941 14.24007956141155
CO-57
1 27848U 03031J   25178.48374736  .00000175  00000-0  96500-4 0  9998
2 27848  98.6783 186.5181 0010163 146.8533 213.3284 14.23341180140918
RS-22
1 27939U 03042A   25178.82381731  .00000632  00000-0  10820-3 0  9990
2 27939  98.3293 348.7171 0010471 317.0980 149.7615 14.72388959163513
CO-58
1 28895U 05043F   25178.88352560  .00000947  00000-0  16251-3 0  9992
2 28895  98.2520 323.4647 0013335 246.6076 113.3728 14.71061776 49867
CO-65
1 32785U 08021C   25178.56250669  .00002751  00000-0  20044-3 0  9996
2 32785  97.7856 149.8619 0010866 142.8615 217.3364 15.04566221931781
CO-66
1 32791U 08021J   25178.22755525  .00010319  00000-0  49537-3 0  9994
2 32791  97.7279 158.6667 0005776 103.5479 256.6399 15.19046910933177
RS-30
1 32953U 08025A   25178.83168956  .00000039  00000-0  20955-3 0  9992
2 32953  82.5015 215.8277 0019295  10.1192 350.0273 12.43165797775809
NOAA-19
1 33591U 09005A   25178.82201793  .00000157  00000-0  10796-3 0  9999
2 33591  98.9967 243.6284 0012866 315.4335  44.5802 14.13382215844680
SRMSAT
1 37841U 11058D   25178.69261478  .00000358  00000-0  50408-4 0  9991
2 37841  19.9733  44.9383 0011717 264.0042 145.5626 14.11440733707891
ZACUBE-1
1 39417U 13066B   25178.83725289  .00004133  00000-0  35927-3 0  9997
2 39417  97.7817 135.7554 0043792 353.9434   6.1252 14.96805216627644
Delfi-N3xt
1 39428U 13066N   25178.50974228  .00004788  00000-0  48826-3 0  9990
2 39428  97.8344  95.9622 0083007 302.2921  57.0274 14.88593951621741
GOMX-1
1 39430U 13066Q   25178.68937395  .00001364  00000-0  21719-3 0  9995
2 39430  97.6818  36.2411 0133394 134.0154 227.2137 14.67696342618061
LO-74
1 39440U 13066AA  25178.80984474  .00002387  00000-0  24415-3 0  9992
2 39440  97.8501 123.2452 0063332 119.1326 241.6251 14.90027952625352
AO-73
1 39444U 13066AE  25178.86176063  .00004447  00000-0  33332-3 0  9996
2 39444  97.7806 140.8491 0041290 326.7570  33.1061 15.02536960626922
DTUSAT-2
1 40030U 14033W   25178.40148503  .00005554  00000-0  36065-3 0  9998
2 40030  98.0560 151.0847 0009299  10.7645 349.3779 15.08455109599086
EO-80
1 40032U 14033Y   25178.88508386  .00004537  00000-0  29495-3 0  9990
2 40032  98.0438 151.2216 0007093 305.3936  54.6628 15.08539531599654
LILACSAT-2
1 40908U 15049K   25178.87881447  .00008786  00000-0  22733-3 0  9999
2 40908  97.5043 199.6701 0011107  95.8056 264.4456 15.39264316541042
IO-86
1 40931U 15052B   25151.18580175  .00001241  00000-0  78118-4 0  9996
2 40931   6.0006  24.0987 0012733 338.8432  21.1169 14.78805930523047
Horyu-4
1 41340U 16012D   25178.85237638  .00016343  00000-0  42623-3 0  9994
2 41340  30.9973   8.9924 0006158 256.3710 103.6250 15.37539791515605
Lapan A3
1 41603U 16040E   25178.87952321  .00002493  00000-0  88320-4 0  9998
2 41603  97.1365 182.7700 0010400 194.4091 165.6855 15.29964722500586
CAS-2T
1 41847U 16066G   25178.49689232  .00001300  00000-0  19176-3 0  9990
2 41847  98.4198 252.8027 0347044 124.2283 239.2305 14.43536318453605
CAS-4B
1 42759U 17034B   25178.53529458  .00058075  00000-0  55891-3 0  9992
2 42759  43.0042 214.6845 0019451  52.8866 307.3774 15.65466362445410
CAS-4A
1 42761U 17034D   25178.80809902  .00055967  00000-0  50833-3 0  9998
2 42761  43.0081 210.0010 0020485  59.6816 300.6073 15.66885247445482
TechnoSat
1 42829U 17042E   25178.70079084  .00001623  00000-0  12864-3 0  9993
2 42829  97.3855 346.5444 0015616 211.2928 148.7370 15.01778432433444
AO-91
1 43017U 17073E   25178.87926094  .00006240  00000-0  31709-3 0  9996
2 43017  97.5217  49.1886 0173608 104.1560 257.9025 15.04970567411961
S-Net D
1 43186U 18014G   25178.69934531  .00002982  00000-0  17749-3 0  9991
2 43186  97.5610  81.4217 0009704 152.9293 207.2445 15.11963958405119
S-Net B
1 43187U 18014H   25178.17552523  .00002985  00000-0  17775-3 0  9994
2 43187  97.5620  80.8760 0010502 150.8234 209.3585 15.11941394405036
S-Net A
1 43188U 18014J   25178.23640483  .00002910  00000-0  17330-3 0  9990
2 43188  97.5627  81.0886 0010362 151.2522 208.9282 15.11965858405046
S-Net C
1 43189U 18014K   25178.17797211  .00002988  00000-0  17789-3 0  9999
2 43189  97.5644  81.0480 0012063 145.7794 214.4216 15.11936989403584
Ten-Koh
1 43677U 18084G   25178.46625343  .00001377  00000-0  11406-3 0  9997
2 43677  98.0853 351.4300 0006968 190.2358 169.8724 15.00640420362926
PO-101
1 43678U 18084H   25178.81967894  .00001262  00000-0  11116-3 0  9998
2 43678  98.1027 355.6403 0008028 220.7884 139.2737 14.98389428363114
QO-100
1 43700U 18090A   25178.77939036  .00000138  00000-0  00000+0 0  9990
2 43700   0.0151 353.5540 0002028 143.0851  85.8599  1.00269126 24368
MinXSS-2
1 43758U 18099A   25178.42868609  .00012977  00000-0  50319-3 0  9997
2 43758  97.5011 244.5262 0013248  95.3515 264.9235 15.26182139359694
AO-95
1 43770U 18099N   25178.58589358  .00006983  00000-0  35115-3 0  9996
2 43770  97.4902 236.4745 0011766 143.9220 216.2810 15.17493523359284
RANGE-A
1 43773U 18099R   25178.56899162  .00002843  00000-0  18233-3 0  9997
2 43773  97.4467 226.4497 0012734 126.2076 234.0333 15.09221428358938
MOVE-II
1 43780U 18099Y   25178.17767310  .00493615  00000-0  17349-2 0  9998
2 43780  97.4626 255.3147 0006262 223.4597 136.6181 15.87987235360586
SNUSat 2
1 43782U 18099AA  25178.57492429  .00005932  00000-0  32200-3 0  9995
2 43782  97.4582 233.0680 0013600  92.9227 267.3562 15.14832037359220
SnugLite
1 43784U 18099AC  25178.61217186  .00006871  00000-0  34265-3 0  9993
2 43784  97.4397 232.7014 0005187  96.2573 263.9252 15.17835637359371
ITASat 1
1 43786U 18099AE  25178.60056474  .00004404  00000-0  25161-3 0  9990
2 43786  97.4551 232.5498 0015559 139.7428 220.4958 15.13115693359184
EAGLET 1
1 43790U 18099AJ  25178.58559902  .00002673  00000-0  17190-3 0  9995
2 43790  97.4748 232.4326 0013455 124.3630 235.8874 15.09176713358781
ESEO
1 43792U 18099AL  25178.58111936  .00000823  00000-0  65934-4 0  9993
2 43792  97.4474 225.4526 0015278  99.4950 260.8003 15.02675869358528
CSIM
1 43793U 18099AM  25178.21421091  .00094816  00000-0  52998-3 0  9990
2 43793  97.4790 257.5262 0005000 147.9093 212.2479 15.79083893360426
JO-97
1 43803U 18099AX  25178.41296436  .00008982  00000-0  40564-3 0  9992
2 43803  97.4651 237.3325 0009049  87.1630 273.0641 15.21165679359489
Suomi 100
1 43804U 18099AY  25178.58816093  .00007430  00000-0  36081-3 0  9994
2 43804  97.4715 236.7511 0013889  87.6799 272.6025 15.18669207359437
ISAT
1 43879U 18111D   25178.21639169  .00015783  00000-0  53740-3 0  9999
2 43879  97.5951  93.0053 0010398 127.6758 232.5427 15.30445109356399
UWE-4
1 43880U 18111E   25178.57142896  .00011406  00000-0  44100-3 0  9994
2 43880  97.5894  91.7201 0013159 140.1799 220.0407 15.26314316356378
Sparrow
1 43881U 18111F   25178.57591480  .00015416  00000-0  50498-3 0  9994
2 43881  97.6099  96.3210 0007552 157.4466 202.7109 15.31726553356541
Prox-1
1 44339U 19036A   25178.61837149  .00007518  00000-0  93179-3 0  9997
2 44339  23.9980 303.2807 0006814 282.7052  77.2683 14.80258309320697
SONATE
1 44400U 19038Q   25178.56462029  .00855993  43705-3  78778-3 0  9991
2 44400  97.6683 208.3089 0008981 195.3093 164.7921 16.12403920332454
Taurus 1
1 44530U 19059C   25178.81413886  .00003703  00000-0  68475-3 0  9998
2 44530  98.6093 319.0756 0008310 346.0931  14.0041 14.66014990306618
Duchifat 3
1 44854U 19089C   25178.56354725  .00034372  00000-0  64086-3 0  9998
2 44854  36.9411 240.7326 0003412 115.8900 244.2209 15.47890031305738
TO-108
1 44881U 19093C   25178.88005486  .00000591  00000-0  74353-4 0  9990
2 44881  97.7923 254.1473 0014159 165.7956 194.3661 14.85631311298797
